ARG1216 SABE-SBFL

Flight info

Callsign ARG1216
Flight time 1h 31m
Altitude 35000
Route DORVO8 DORVO UN857 ITBEB UM540 DADMO
Aircraft B38M/M-SDE1FGHILORVWXY/HB1

Departure

Time 2026-04-09 22:26
Airport Aeroparque Jorge Newbery (SABE)

Arrival

Time 2026-04-09 23:57
Airport Hercílio Luz International Airport (SBFL)
Time Latitude Longitude Altitude Speed Heading
2026-04-09 21:31 -34.55969 -58.41017 28 ft 0 kts 58°
2026-04-09 22:15 -34.55979 -58.41036 28 ft 4 kts 53°
2026-04-09 22:16 -34.55996 -58.41056 28 ft 4 kts 17°
2026-04-09 22:16 -34.56012 -58.41053 28 ft 3 kts 318°
2026-04-09 22:16 -34.56031 -58.41030 28 ft 4 kts 310°
2026-04-09 22:16 -34.56045 -58.41008 28 ft 1 kts 308°
2026-04-09 22:19 -34.56044 -58.41009 28 ft 1 kts 308°
2026-04-09 22:20 -34.56033 -58.41038 28 ft 7 kts 272°
2026-04-09 22:20 -34.56039 -58.41118 28 ft 13 kts 307°
2026-04-09 22:20 -34.55985 -58.41205 28 ft 11 kts 307°
2026-04-09 22:20 -34.55939 -58.41278 28 ft 10 kts 306°
2026-04-09 22:21 -34.55900 -58.41361 28 ft 12 kts 297°
2026-04-09 22:21 -34.55860 -58.41456 28 ft 13 kts 297°
2026-04-09 22:21 -34.55823 -58.41543 28 ft 10 kts 297°
2026-04-09 22:21 -34.55789 -58.41626 28 ft 11 kts 296°
2026-04-09 22:22 -34.55753 -58.41714 28 ft 13 kts 296°
2026-04-09 22:22 -34.55705 -58.41812 28 ft 14 kts 304°
2026-04-09 22:22 -34.55649 -58.41914 28 ft 15 kts 304°
2026-04-09 22:22 -34.55592 -58.42016 28 ft 13 kts 304°
2026-04-09 22:23 -34.55536 -58.42108 28 ft 14 kts 307°
2026-04-09 22:23 -34.55474 -58.42207 28 ft 13 kts 307°
2026-04-09 22:23 -34.55415 -58.42302 28 ft 15 kts 307°
2026-04-09 22:23 -34.55367 -58.42403 28 ft 13 kts 282°
2026-04-09 22:24 -34.55380 -58.42503 28 ft 8 kts 218°
2026-04-09 22:24 -34.55404 -58.42508 28 ft 2 kts 142°
2026-04-09 22:24 -34.55415 -58.42491 28 ft 0 kts 123°
2026-04-09 22:25 -34.55425 -58.42474 28 ft 19 kts 123°
2026-04-09 22:25 -34.55653 -58.42066 29 ft 96 kts 124°
2026-04-09 22:25 -34.56153 -58.41170 30 ft 157 kts 124°
2026-04-09 22:25 -34.56801 -58.40001 489 ft 169 kts 122°
2026-04-09 22:26 -34.57437 -58.38787 1193 ft 175 kts 124°
2026-04-09 22:26 -34.57925 -58.37351 1624 ft 199 kts 98°
2026-04-09 22:26 -34.57717 -58.35610 2125 ft 223 kts 65°
2026-04-09 22:26 -34.56654 -58.34124 2781 ft 238 kts 31°
2026-04-09 22:27 -34.55144 -58.33199 3512 ft 254 kts 25°
2026-04-09 22:27 -34.53677 -58.32047 4416 ft 255 kts 45°
2026-04-09 22:27 -34.52712 -58.30193 5066 ft 267 kts 79°
2026-04-09 22:27 -34.52732 -58.27965 5928 ft 271 kts 105°
2026-04-09 22:28 -34.53250 -58.25757 6783 ft 274 kts 109°
2026-04-09 22:28 -34.53827 -58.23512 7551 ft 282 kts 110°
2026-04-09 22:28 -34.54419 -58.21244 8438 ft 286 kts 110°
2026-04-09 22:28 -34.55016 -58.18915 9266 ft 291 kts 110°
2026-04-09 22:29 -34.55615 -58.16549 10120 ft 296 kts 110°
2026-04-09 22:29 -34.56226 -58.14118 10674 ft 309 kts 110°
2026-04-09 22:29 -34.56870 -58.11543 11044 ft 329 kts 110°
2026-04-09 22:29 -34.57549 -58.08818 11490 ft 344 kts 110°
2026-04-09 22:30 -34.58244 -58.06026 12228 ft 347 kts 110°
2026-04-09 22:30 -34.58946 -58.03205 12987 ft 351 kts 110°
2026-04-09 22:30 -34.59656 -58.00347 13766 ft 355 kts 110°
2026-04-09 22:30 -34.60370 -57.97466 14536 ft 356 kts 110°
2026-04-09 22:31 -34.61084 -57.94583 15274 ft 359 kts 110°
2026-04-09 22:31 -34.61807 -57.91661 15946 ft 363 kts 110°
2026-04-09 22:31 -34.62538 -57.88708 16610 ft 367 kts 110°
2026-04-09 22:31 -34.63274 -57.85725 17276 ft 371 kts 110°
2026-04-09 22:32 -34.64018 -57.82708 17928 ft 374 kts 110°
2026-04-09 22:32 -34.64768 -57.79664 18556 ft 378 kts 110°
2026-04-09 22:32 -34.65525 -57.76588 19125 ft 381 kts 110°
2026-04-09 22:32 -34.66284 -57.73498 19711 ft 383 kts 110°
2026-04-09 22:33 -34.67048 -57.70389 20285 ft 385 kts 110°
2026-04-09 22:33 -34.67814 -57.67262 20850 ft 388 kts 110°
2026-04-09 22:33 -34.68587 -57.64107 21422 ft 390 kts 110°
2026-04-09 22:33 -34.69361 -57.60944 22007 ft 392 kts 110°
2026-04-09 22:34 -34.70137 -57.57757 22556 ft 395 kts 109°
2026-04-09 22:34 -34.70538 -57.54474 23073 ft 403 kts 92°
2026-04-09 22:34 -34.70111 -57.51091 23631 ft 412 kts 75°
2026-04-09 22:34 -34.68862 -57.47926 24076 ft 421 kts 58°
2026-04-09 22:35 -34.67029 -57.45140 24539 ft 424 kts 54°
2026-04-09 22:35 -34.65151 -57.42364 24961 ft 426 kts 53°
2026-04-09 22:35 -34.63255 -57.39589 25416 ft 428 kts 53°
2026-04-09 22:35 -34.61342 -57.36807 25863 ft 429 kts 53°
2026-04-09 22:36 -34.59418 -57.34017 26272 ft 432 kts 53°
2026-04-09 22:36 -34.57485 -57.31218 26699 ft 434 kts 54°
2026-04-09 22:36 -34.55541 -57.28405 27097 ft 436 kts 54°
2026-04-09 22:36 -34.54250 -57.26539 27364 ft 437 kts 54°
2026-04-09 22:37 -34.51626 -57.22749 27895 ft 439 kts 54°
2026-04-09 22:37 -34.49658 -57.19908 28279 ft 441 kts 54°
2026-04-09 22:37 -34.47682 -57.17059 28663 ft 443 kts 54°
2026-04-09 22:37 -34.45689 -57.14187 29038 ft 445 kts 54°
2026-04-09 22:38 -34.43688 -57.11307 29409 ft 447 kts 54°
2026-04-09 22:38 -34.41680 -57.08419 29777 ft 450 kts 54°
2026-04-09 22:38 -34.39660 -57.05514 30100 ft 452 kts 54°
2026-04-09 22:38 -34.37653 -57.02633 30403 ft 454 kts 54°
2026-04-09 22:39 -34.35612 -56.99705 30658 ft 457 kts 54°
2026-04-09 22:39 -34.33557 -56.96759 30926 ft 459 kts 53°
2026-04-09 22:39 -34.31493 -56.93802 31187 ft 462 kts 53°
2026-04-09 22:39 -34.29410 -56.90820 31440 ft 464 kts 53°
2026-04-09 22:40 -34.27318 -56.87826 31694 ft 467 kts 53°
2026-04-09 22:40 -34.25216 -56.84827 31952 ft 469 kts 53°
2026-04-09 22:40 -34.23094 -56.81800 32085 ft 476 kts 51°
2026-04-09 22:40 -34.20932 -56.78722 32084 ft 484 kts 51°
2026-04-09 22:41 -34.18757 -56.75627 32451 ft 483 kts 51°
2026-04-09 22:41 -34.16583 -56.72535 32743 ft 484 kts 51°
2026-04-09 22:41 -34.15131 -56.70473 32973 ft 484 kts 51°
2026-04-09 22:41 -34.12953 -56.67379 33284 ft 485 kts 51°
2026-04-09 22:42 -34.10025 -56.63225 33710 ft 486 kts 51°
2026-04-09 22:42 -34.08575 -56.61171 33915 ft 486 kts 51°
2026-04-09 22:42 -34.06384 -56.58067 34210 ft 486 kts 51°
2026-04-09 22:42 -34.04186 -56.54958 34448 ft 488 kts 50°
2026-04-09 22:43 -34.01978 -56.51836 34621 ft 490 kts 50°
2026-04-09 22:43 -33.99763 -56.48707 34866 ft 491 kts 50°
2026-04-09 22:43 -33.97542 -56.45572 35093 ft 492 kts 50°
2026-04-09 22:43 -33.95316 -56.42433 35139 ft 494 kts 50°
2026-04-09 22:44 -33.90867 -56.36167 35133 ft 491 kts 50°
2026-04-09 22:44 -33.86404 -56.29918 35141 ft 492 kts 49°
2026-04-09 22:45 -33.81927 -56.23671 35133 ft 494 kts 49°
2026-04-09 22:45 -33.77452 -56.17407 35130 ft 494 kts 49°
2026-04-09 22:46 -33.72973 -56.11138 35128 ft 494 kts 49°
2026-04-09 22:46 -33.68497 -56.04886 35126 ft 494 kts 49°
2026-04-09 22:47 -33.64038 -55.98668 35128 ft 494 kts 49°
2026-04-09 22:47 -33.59552 -55.92422 35126 ft 494 kts 49°
2026-04-09 22:48 -33.55068 -55.86190 35125 ft 494 kts 49°
2026-04-09 22:48 -33.50575 -55.79957 35123 ft 494 kts 49°
2026-04-09 22:49 -33.46069 -55.73717 35112 ft 499 kts 47°
2026-04-09 22:49 -33.41494 -55.67391 35121 ft 503 kts 47°
2026-04-09 22:50 -33.36910 -55.61064 35125 ft 503 kts 47°
2026-04-09 22:50 -33.32329 -55.54753 35120 ft 503 kts 47°
2026-04-09 22:51 -33.27736 -55.48437 35119 ft 504 kts 47°
2026-04-09 22:51 -33.23130 -55.42113 35120 ft 504 kts 47°
2026-04-09 22:52 -33.18516 -55.35790 35123 ft 504 kts 47°
2026-04-09 22:52 -33.13936 -55.29524 35122 ft 504 kts 47°
2026-04-09 22:53 -33.09319 -55.23219 35117 ft 505 kts 47°
2026-04-09 22:53 -33.04669 -55.16879 35110 ft 510 kts 46°
2026-04-09 22:54 -32.99993 -55.10514 35113 ft 510 kts 46°
2026-04-09 22:54 -32.95316 -55.04160 35115 ft 510 kts 46°
2026-04-09 22:55 -32.90633 -54.97810 35115 ft 511 kts 46°
2026-04-09 22:55 -32.85939 -54.91453 35118 ft 512 kts 46°
2026-04-09 22:56 -32.81238 -54.85100 35110 ft 511 kts 46°
2026-04-09 22:56 -32.76532 -54.78751 35114 ft 511 kts 46°
2026-04-09 22:57 -32.71831 -54.72421 35113 ft 512 kts 45°
2026-04-09 22:57 -32.67101 -54.66061 35103 ft 517 kts 45°
2026-04-09 22:58 -32.62330 -54.59658 35112 ft 518 kts 45°
2026-04-09 22:58 -32.57552 -54.53256 35110 ft 518 kts 45°
2026-04-09 22:59 -32.52803 -54.46905 35100 ft 518 kts 44°
2026-04-09 22:59 -32.48017 -54.40513 35110 ft 519 kts 44°
2026-04-09 23:00 -32.43219 -54.34116 35118 ft 519 kts 44°
2026-04-09 23:00 -32.38423 -54.27732 35117 ft 519 kts 44°
2026-04-09 23:01 -32.33637 -54.21332 35102 ft 520 kts 45°
2026-04-09 23:01 -32.28878 -54.14873 35086 ft 522 kts 44°
2026-04-09 23:02 -32.24081 -54.08381 35100 ft 526 kts 44°
2026-04-09 23:02 -32.19270 -54.01882 35108 ft 525 kts 44°
2026-04-09 23:03 -32.14481 -53.95425 35103 ft 527 kts 44°
2026-04-09 23:03 -32.09646 -53.88917 35106 ft 527 kts 44°
2026-04-09 23:04 -32.04811 -53.82421 35110 ft 527 kts 44°
2026-04-09 23:04 -31.99970 -53.75928 35109 ft 527 kts 44°
2026-04-09 23:05 -31.95131 -53.69451 35117 ft 527 kts 44°
2026-04-09 23:05 -31.90281 -53.62970 35097 ft 528 kts 44°
2026-04-09 23:06 -31.85401 -53.56459 35117 ft 532 kts 44°
2026-04-09 23:06 -31.80509 -53.49943 35108 ft 531 kts 44°
2026-04-09 23:07 -31.73160 -53.40177 35114 ft 531 kts 44°
2026-04-09 23:08 -31.68267 -53.33689 35122 ft 531 kts 44°
2026-04-09 23:08 -31.63391 -53.27234 35122 ft 531 kts 44°
2026-04-09 23:09 -31.58489 -53.20757 35112 ft 532 kts 44°
2026-04-09 23:09 -31.53571 -53.14268 35114 ft 532 kts 44°
2026-04-09 23:10 -31.48643 -53.07780 35103 ft 535 kts 43°
2026-04-09 23:10 -31.43685 -53.01261 35111 ft 536 kts 43°
2026-04-09 23:11 -31.38714 -52.94737 35121 ft 537 kts 43°
2026-04-09 23:11 -31.33738 -52.88216 35120 ft 536 kts 43°
2026-04-09 23:12 -31.28763 -52.81703 35111 ft 537 kts 43°
2026-04-09 23:12 -31.23784 -52.75195 35104 ft 537 kts 43°
2026-04-09 23:13 -31.18795 -52.68692 35109 ft 537 kts 43°
2026-04-09 23:13 -31.13845 -52.62251 35108 ft 537 kts 43°
2026-04-09 23:14 -31.08849 -52.55760 35102 ft 539 kts 42°
2026-04-09 23:14 -31.03825 -52.49244 35096 ft 540 kts 42°
2026-04-09 23:15 -30.98798 -52.42735 35109 ft 540 kts 42°
2026-04-09 23:15 -30.93768 -52.36234 35101 ft 540 kts 42°
2026-04-09 23:16 -30.88740 -52.29804 35099 ft 539 kts 41°
2026-04-09 23:16 -30.83593 -52.23374 35106 ft 540 kts 41°
2026-04-09 23:17 -30.78482 -52.16981 35098 ft 539 kts 41°
2026-04-09 23:17 -30.73402 -52.10638 35108 ft 540 kts 41°
2026-04-09 23:18 -30.68273 -52.04250 35089 ft 542 kts 40°
2026-04-09 23:18 -30.63123 -51.97850 35103 ft 543 kts 40°
2026-04-09 23:19 -30.57962 -51.91448 35106 ft 542 kts 40°
2026-04-09 23:19 -30.52801 -51.85057 35101 ft 542 kts 40°
2026-04-09 23:20 -30.47644 -51.78681 35094 ft 542 kts 40°
2026-04-09 23:20 -30.42580 -51.72191 35099 ft 544 kts 43°
2026-04-09 23:21 -30.37560 -51.65634 35098 ft 544 kts 42°
2026-04-09 23:21 -30.32529 -51.59089 35060 ft 544 kts 42°
2026-04-09 23:22 -30.27488 -51.52542 35098 ft 545 kts 42°
2026-04-09 23:22 -30.22439 -51.45996 35092 ft 545 kts 42°
2026-04-09 23:23 -30.17421 -51.39500 35080 ft 545 kts 42°
2026-04-09 23:23 -30.12364 -51.32965 35067 ft 545 kts 41°
2026-04-09 23:24 -30.07311 -51.26446 35070 ft 545 kts 41°
2026-04-09 23:24 -30.02250 -51.19928 35075 ft 545 kts 41°
2026-04-09 23:25 -29.97185 -51.13423 35073 ft 545 kts 41°
2026-04-09 23:25 -29.92118 -51.06927 35074 ft 545 kts 41°
2026-04-09 23:26 -29.87046 -51.00436 35077 ft 545 kts 41°
2026-04-09 23:26 -29.81976 -50.93957 35079 ft 545 kts 41°
2026-04-09 23:27 -29.76900 -50.87482 35091 ft 544 kts 41°
2026-04-09 23:27 -29.71823 -50.81016 35096 ft 544 kts 41°
2026-04-09 23:28 -29.66751 -50.74568 35101 ft 544 kts 41°
2026-04-09 23:28 -29.61676 -50.68125 35102 ft 543 kts 41°
2026-04-09 23:29 -29.56627 -50.61725 35095 ft 544 kts 41°
2026-04-09 23:29 -29.51374 -50.55552 35078 ft 530 kts 28°
2026-04-09 23:30 -29.45462 -50.50477 35151 ft 533 kts 28°
2026-04-09 23:30 -29.39537 -50.45375 35114 ft 531 kts 28°
2026-04-09 23:31 -29.33615 -50.40293 35120 ft 532 kts 28°
2026-04-09 23:31 -29.27682 -50.35209 35127 ft 532 kts 28°
2026-04-09 23:32 -29.21755 -50.30139 35124 ft 532 kts 28°
2026-04-09 23:32 -29.15825 -50.25073 34913 ft 530 kts 28°
2026-04-09 23:32 -29.12855 -50.22540 33971 ft 537 kts 28°
2026-04-09 23:33 -29.10820 -50.20804 33203 ft 542 kts 28°
2026-04-09 23:33 -29.07824 -50.18249 32334 ft 544 kts 29°
2026-04-09 23:33 -29.04811 -50.15683 31859 ft 536 kts 29°
2026-04-09 23:33 -29.01845 -50.13159 31534 ft 526 kts 29°
2026-04-09 23:34 -28.98924 -50.10675 30896 ft 524 kts 29°
2026-04-09 23:34 -28.95986 -50.08179 30002 ft 528 kts 29°
2026-04-09 23:34 -28.93024 -50.05664 28893 ft 532 kts 30°
2026-04-09 23:34 -28.90040 -50.03132 27818 ft 536 kts 30°
2026-04-09 23:35 -28.87047 -50.00594 26751 ft 537 kts 30°
2026-04-09 23:35 -28.84072 -49.98073 25793 ft 526 kts 31°
2026-04-09 23:35 -28.81190 -49.95632 25245 ft 506 kts 31°
2026-04-09 23:35 -28.78415 -49.93283 24822 ft 487 kts 30°
2026-04-09 23:36 -28.75743 -49.91025 24382 ft 470 kts 31°
2026-04-09 23:36 -28.73155 -49.88837 23946 ft 456 kts 30°
2026-04-09 23:36 -28.70643 -49.86715 23493 ft 444 kts 30°
2026-04-09 23:36 -28.68193 -49.84649 22951 ft 433 kts 30°
2026-04-09 23:37 -28.65807 -49.82634 22547 ft 420 kts 30°
2026-04-09 23:37 -28.63500 -49.80688 22210 ft 406 kts 30°
2026-04-09 23:37 -28.61256 -49.78799 21902 ft 399 kts 30°
2026-04-09 23:37 -28.59029 -49.76924 21505 ft 398 kts 30°
2026-04-09 23:38 -28.56807 -49.75052 21136 ft 396 kts 30°
2026-04-09 23:38 -28.54599 -49.73193 20769 ft 393 kts 31°
2026-04-09 23:38 -28.52415 -49.71355 20446 ft 390 kts 31°
2026-04-09 23:38 -28.50244 -49.69529 20109 ft 387 kts 31°
2026-04-09 23:39 -28.48084 -49.67713 19775 ft 385 kts 31°
2026-04-09 23:39 -28.46077 -49.65665 19362 ft 390 kts 40°
2026-04-09 23:39 -28.44187 -49.63523 19041 ft 388 kts 40°
2026-04-09 23:39 -28.42275 -49.61371 18706 ft 385 kts 40°
2026-04-09 23:40 -28.40377 -49.59235 18372 ft 383 kts 40°
2026-04-09 23:40 -28.38489 -49.57112 17995 ft 381 kts 40°
2026-04-09 23:40 -28.36615 -49.55005 17629 ft 377 kts 41°
2026-04-09 23:40 -28.34772 -49.52935 17369 ft 368 kts 40°
2026-04-09 23:41 -28.32958 -49.50901 17011 ft 364 kts 40°
2026-04-09 23:41 -28.31163 -49.48887 16678 ft 361 kts 40°
2026-04-09 23:41 -28.29376 -49.46884 16344 ft 364 kts 40°
2026-04-09 23:41 -28.27564 -49.44853 16022 ft 369 kts 41°
2026-04-09 23:42 -28.25735 -49.42804 15697 ft 369 kts 41°
2026-04-09 23:42 -28.23911 -49.40762 15372 ft 367 kts 41°
2026-04-09 23:42 -28.22098 -49.38733 15048 ft 365 kts 41°
2026-04-09 23:42 -28.20295 -49.36716 14709 ft 363 kts 41°
2026-04-09 23:43 -28.18500 -49.34709 14386 ft 361 kts 41°
2026-04-09 23:43 -28.16718 -49.32718 14076 ft 358 kts 41°
2026-04-09 23:43 -28.14950 -49.30745 13737 ft 356 kts 41°
2026-04-09 23:43 -28.13188 -49.28778 13383 ft 354 kts 41°
2026-04-09 23:44 -28.11460 -49.26849 13050 ft 352 kts 41°
2026-04-09 23:44 -28.09716 -49.24904 12695 ft 351 kts 41°
2026-04-09 23:44 -28.07987 -49.22977 12387 ft 347 kts 41°
2026-04-09 23:44 -28.06268 -49.21064 12072 ft 344 kts 41°
2026-04-09 23:45 -28.04576 -49.19178 11778 ft 341 kts 41°
2026-04-09 23:45 -28.02890 -49.17302 11461 ft 338 kts 41°
2026-04-09 23:45 -28.01214 -49.15437 11144 ft 336 kts 41°
2026-04-09 23:45 -27.99552 -49.13589 10835 ft 334 kts 41°
2026-04-09 23:46 -27.97898 -49.11750 10565 ft 331 kts 41°
2026-04-09 23:46 -27.96275 -49.09947 10415 ft 323 kts 41°
2026-04-09 23:46 -27.94699 -49.08196 10271 ft 314 kts 41°
2026-04-09 23:46 -27.93164 -49.06493 10142 ft 305 kts 41°
2026-04-09 23:47 -27.91658 -49.04822 9898 ft 302 kts 41°
2026-04-09 23:47 -27.90159 -49.03160 9566 ft 302 kts 41°
2026-04-09 23:47 -27.88658 -49.01496 9227 ft 303 kts 41°
2026-04-09 23:47 -27.87152 -48.99825 8868 ft 304 kts 41°
2026-04-09 23:48 -27.85639 -48.98151 8515 ft 304 kts 42°
2026-04-09 23:48 -27.84141 -48.96491 8249 ft 300 kts 42°
2026-04-09 23:48 -27.82653 -48.94844 7978 ft 297 kts 42°
2026-04-09 23:48 -27.81205 -48.93242 7732 ft 294 kts 42°
2026-04-09 23:49 -27.79758 -48.91642 7525 ft 289 kts 41°
2026-04-09 23:49 -27.78335 -48.90070 7311 ft 284 kts 42°
2026-04-09 23:49 -27.76937 -48.88524 7113 ft 280 kts 42°
2026-04-09 23:49 -27.75556 -48.86997 6889 ft 276 kts 43°
2026-04-09 23:50 -27.74196 -48.85496 6685 ft 271 kts 42°
2026-04-09 23:50 -27.72864 -48.84025 6493 ft 266 kts 42°
2026-04-09 23:50 -27.71549 -48.82575 6290 ft 261 kts 43°
2026-04-09 23:50 -27.70263 -48.81155 6076 ft 256 kts 43°
2026-04-09 23:51 -27.69002 -48.79765 5882 ft 251 kts 43°
2026-04-09 23:51 -27.67765 -48.78402 5715 ft 245 kts 43°
2026-04-09 23:51 -27.66450 -48.77238 5527 ft 241 kts 24°
2026-04-09 23:51 -27.64841 -48.76757 5215 ft 239 kts
2026-04-09 23:52 -27.63181 -48.76660 4874 ft 240 kts
2026-04-09 23:52 -27.61543 -48.76262 4531 ft 242 kts 16°
2026-04-09 23:52 -27.59943 -48.75640 4173 ft 245 kts 25°
2026-04-09 23:52 -27.58631 -48.74451 3807 ft 244 kts 56°
2026-04-09 23:53 -27.58041 -48.72727 3538 ft 232 kts 86°
2026-04-09 23:53 -27.58224 -48.70979 3226 ft 222 kts 113°
2026-04-09 23:53 -27.58912 -48.69449 2900 ft 214 kts 121°
2026-04-09 23:53 -27.59624 -48.68060 2627 ft 201 kts 123°
2026-04-09 23:54 -27.60321 -48.66755 2355 ft 187 kts 123°
2026-04-09 23:54 -27.60955 -48.65573 2110 ft 168 kts 123°
2026-04-09 23:54 -27.61526 -48.64505 1931 ft 152 kts 125°
2026-04-09 23:54 -27.62063 -48.63507 1715 ft 146 kts 126°
2026-04-09 23:55 -27.62587 -48.62535 1510 ft 145 kts 125°
2026-04-09 23:55 -27.63108 -48.61571 1346 ft 143 kts 125°
2026-04-09 23:55 -27.63613 -48.60602 1122 ft 145 kts 123°
2026-04-09 23:55 -27.64141 -48.59632 967 ft 146 kts 123°
2026-04-09 23:56 -27.64671 -48.58653 756 ft 147 kts 123°
2026-04-09 23:56 -27.65197 -48.57666 565 ft 146 kts 123°
2026-04-09 23:56 -27.65721 -48.56695 386 ft 144 kts 124°
2026-04-09 23:56 -27.66236 -48.55743 189 ft 142 kts 125°
2026-04-09 23:57 -27.66746 -48.54791 34 ft 136 kts 125°
2026-04-09 23:57 -27.67165 -48.54023 27 ft 84 kts 121°
2026-04-09 23:57 -27.67386 -48.53611 28 ft 43 kts 121°
2026-04-09 23:57 -27.67490 -48.53417 28 ft 26 kts 121°
2026-04-09 23:58 -27.67580 -48.53251 29 ft 23 kts 121°
2026-04-09 23:58 -27.67644 -48.53133 29 ft 13 kts 122°
2026-04-09 23:58 -27.67705 -48.53067 29 ft 12 kts 182°
2026-04-09 23:58 -27.67781 -48.53117 27 ft 14 kts 211°
2026-04-09 23:59 -27.67793 -48.53216 27 ft 15 kts 305°
2026-04-09 23:59 -27.67736 -48.53318 29 ft 16 kts 302°
2026-04-09 23:59 -27.67678 -48.53426 30 ft 15 kts 301°
2026-04-09 23:59 -27.67621 -48.53531 30 ft 17 kts 301°
2026-04-10 00:00 -27.67557 -48.53651 29 ft 18 kts 301°
2026-04-10 00:00 -27.67490 -48.53776 30 ft 20 kts 301°
2026-04-10 00:00 -27.67419 -48.53905 30 ft 20 kts 301°
2026-04-10 00:00 -27.67345 -48.54044 30 ft 22 kts 301°
2026-04-10 00:01 -27.67268 -48.54186 30 ft 20 kts 302°
2026-04-10 00:01 -27.67200 -48.54312 30 ft 16 kts 301°
2026-04-10 00:01 -27.67141 -48.54422 31 ft 16 kts 302°
2026-04-10 00:01 -27.67085 -48.54525 30 ft 13 kts 301°
2026-04-10 00:02 -27.67094 -48.54600 31 ft 10 kts 218°
2026-04-10 00:02 -27.67161 -48.54620 31 ft 11 kts 169°
2026-04-10 00:02 -27.67209 -48.54591 31 ft 5 kts 167°
2026-04-10 00:02 -27.67229 -48.54601 31 ft 2 kts 211°
2026-04-10 00:03 -27.67242 -48.54609 31 ft 2 kts 212°
2026-04-10 00:03 -27.67242 -48.54610 31 ft 0 kts 212°